Flag for U.S.A. Weather past 2 weeks in Albuquerque, New Mexico, U.S.A.

Now
33 °F

Passing clouds.


Feels Like: 33 °F
Forecast: 26 / 46 °F
Wind: No wind

Location: Albuquerque International Airport

Current Time: Feb 1, 2015 at 7:58:45 AM

Latest Report: Feb 1, 2015 at 6:52 AM


Visibility: 10 mi

Pressure: 30.08 "Hg

Humidity: 85%

Dew point: 29 °F

Location of AlbuquerqueLocation

Historic Weather in Albuquerque — Graph

°F

Albuquerque temperature yesterday

Maximum temperature yesterday: 41 °F (at 3:52 PM)
Minimum temperature yesterday: 33 °F (at 2:52 AM)
Average temperature yesterday: 37 °F

Past Weeks' High & Low Weather Summary

 TemperatureHumidityPressure
High63 °F (Jan 28, 2:52 PM)100% (Jan 31, 6:03 AM)30.44 "Hg (Jan 31, 6:03 AM)
Low20 °F (Jan 23, 4:52 AM)23% (Jan 17, 3:52 PM)29.88 "Hg (Jan 31, 1:52 PM)
Average40 °F59%30.21 "Hg
* Reported Jan 17 6:52 AM — Feb 1 6:52 AM, Albuquerque, Weather by CustomWeather, © 2014

Note: Actual official high and low records may vary slightly from our data, if they occured in-between our weather recording intervals... More about our weather records

Advertising

Albuquerque weather history for previous 24 hours

 ConditionsComfort  
Time TempWeatherWind HumidityBarometerVisibility
6:52 AM
Feb 1
33 °FPassing clouds.No wind85%30.08 "Hg10 mi
5:52 AM34 °FPassing clouds.3 mph85%30.04 "Hg10 mi
4:52 AM35 °FPassing clouds.7 mph82%30.01 "Hg10 mi
3:52 AM37 °FPassing clouds.8 mph79%29.98 "Hg10 mi
2:52 AM36 °FPassing clouds.7 mph82%29.98 "Hg10 mi
1:52 AM37 °FPassing clouds.6 mph82%29.97 "Hg10 mi
12:52 AM39 °FMostly cloudy.9 mph76%29.97 "Hg10 mi
11:52 PM
Jan 31
39 °FPartly cloudy.14 mph76%29.97 "Hg10 mi
10:52 PM38 °FPassing clouds.10 mph83%29.97 "Hg10 mi
9:52 PM38 °FPassing clouds.5 mph86%29.95 "Hg10 mi
8:52 PM37 °FPassing clouds.3 mph93%29.96 "Hg10 mi
7:52 PM38 °FPassing clouds.No wind86%29.92 "Hg10 mi
6:52 PM39 °FPassing clouds.5 mph86%29.92 "Hg10 mi
5:52 PM40 °FPassing clouds.No wind83%29.89 "Hg10 mi
4:52 PM41 °FBroken clouds.5 mph80%29.88 "Hg10 mi
3:52 PM41 °FBroken clouds.No wind80%29.88 "Hg10 mi
2:52 PM40 °FFog.No wind83%29.88 "Hg3 mi
1:52 PM39 °FFog.No wind86%29.88 "Hg3 mi
12:52 PM38 °FFog.No wind90%29.89 "Hg3 mi
11:52 AM36 °FFog.5 mph97%29.93 "Hg3 mi
10:52 AM36 °FFog.5 mph92%29.94 "Hg3 mi
9:52 AM35 °FLight rain. Fog.3 mph96%29.93 "Hg1 mi
8:52 AM33 °FLight rain. Fog.No wind96%29.94 "Hg1 mi
7:52 AM33 °FLight snow. Fog.5 mph96%29.95 "Hg1 mi
Weather by CustomWeather, © 2014

See weather overviewHow to use our weather pages